Location: Aufkirchen
(47.9603°N, 11.3653°E)
Time: 15:02:08
(UTC+01:00)

Transit 2A Rocket - Pass Details

Date: 14 December 2020
Orbit: 592 x 910 km, 66.7° (Epoch: 21 January)

Event Time Altitude Azimuth Distance (km) Brightness Sun altitude
Rises 07:37:48 0° 320° (NW) 3,075 - -3.5°
Exits shadow 07:38:35 - 319° (NW) 2,771 7.3 -3.4°
Reaches altitude 10° 07:40:19 10° 313° (NW) 2,104 6.6 -3.2°
Maximum altitude 07:44:43 40° 245° (WSW) 934 5.3 -2.5°
Drops below altitude 10° 07:48:50 10° 175° (S) 1,958 7.7 -2.0°
Sets 07:51:06 0° 168° (SSE) 2,835 8.7 -1.6°
